This demonstration page uses our WeatherBlox Daily Observations layout. Learn more.

39.08367, -84.50855

Hourly Observations for April 21, 2019

Temp ( °F °C ) Dew Point ( °F °C ) Humidity (%) Winds ( mph kmh ) Pressure ( in mb ) Visibility ( mi km ) Precip ( " mm )
12:53 am 00:53 Cloudy 43 6.1 38 3.3 82 82 WNW 3 6 29.88 1012 10 16.09344 0 0
1:53 am 01:53 Cloudy 44 6.7 39 3.9 83 83 Calm 29.91 1013 10 16.09344 0 0
2:53 am 02:53 Cloudy 43 6.1 39 3.9 86 86 Calm 29.91 1013 10 16.09344 0 0
3:53 am 03:53 Cloudy 44 6.7 39 3.9 83 83 NNW 5 7 29.94 1014 10 16.09344 0 0
4:30 am 04:30 Mostly Clear 43 6.1 37 2.8 80 80 Calm 29.97 1015 10 16.09344 0 0
4:53 am 04:53 Mostly Clear 42 5.6 38 3.3 85 85 Calm 29.97 1015 10 16.09344 0 0
5:25 am 05:25 Mostly Cloudy 40 4.4 39 3.9 97 97 Calm 30 1016 10 16.09344 0 0
5:53 am 05:53 Cloudy 42 5.6 40 4.4 92 92 Calm 30 1016 10 16.09344 0 0
6:53 am 06:53 Cloudy 43 6.1 41 5 93 93 S 3 6 30 1016 10 16.09344 0 0
7:28 am 07:28 Cloudy 44 6.7 39 3.9 83 83 S 3 6 30.03 1017 10 16.09344 0 0
7:53 am 07:53 Cloudy 44 6.7 40 4.4 85 85 SSW 5 7 30.03 1017 10 16.09344 0 0
8:53 am 08:53 Cloudy 45 7.2 41 5 86 86 WSW 5 7 30.06 1018 10 16.09344 0 0
9:53 am 09:53 Cloudy 47 8.3 42 5.6 83 83 VRB 3 6 30.09 1019 10 16.09344 0 0
10:31 am 10:31 Cloudy 49 9.4 42 5.6 77 77 Calm 30.09 1019 10 16.09344 0 0
10:53 am 10:53 Mostly Cloudy 50 10 43 6.1 77 77 SSE 5 7 30.09 1019 10 16.09344 0 0
11:10 am 11:10 Partly Cloudy 51 10.6 42 5.6 71 71 Calm 30.12 1020 10 16.09344 0 0
11:53 am 11:53 Sunny 53 11.7 42 5.6 66 66 Calm 30.09 1019 10 16.09344 0 0
12:53 pm 12:53 Sunny 56 13.3 45 7.2 67 67 S 5 7 30.09 1019 10 16.09344 0 0
1:53 pm 13:53 Sunny 59 15 44 6.7 58 58 S 6 9 30.09 1019 10 16.09344 0 0
2:53 pm 14:53 Sunny 62 16.7 44 6.7 52 52 S 6 9 30.09 1019 10 16.09344 0 0
3:53 pm 15:53 Sunny 64 17.8 43 6.1 46 46 Calm 30.09 1019 10 16.09344 0 0
4:53 pm 16:53 Sunny 65 18.3 43 6.1 45 45 Calm 30.09 1019 10 16.09344 0 0
5:53 pm 17:53 Sunny 67 19.4 44 6.7 44 44 ENE 5 7 30.09 1019 10 16.09344 0 0
6:53 pm 18:53 Sunny 66 18.9 44 6.7 45 45 SE 6 9 30.09 1019 10 16.09344 0 0
7:53 pm 19:53 Sunny 63 17.2 44 6.7 50 50 ENE 5 7 30.09 1019 10 16.09344 0 0
8:53 pm 20:53 Clear 56 13.3 49 9.4 77 77 Calm 30.12 1020 10 16.09344 0 0
9:53 pm 21:53 Clear 52 11.1 48 8.9 86 86 Calm 30.15 1021 10 16.09344 0 0
10:53 pm 22:53 Clear 50 10 47 8.3 89 89 Calm 30.15 1021 10 16.09344 0 0
11:53 pm 23:53 Clear 49 9.4 46 7.8 90 90 Calm 30.18 1022 10 16.09344 0 0

Powered by AerisWeather